Regional Weather Roundup
Issued by NWS

Home | Current Version | Previous Version | Text Only | Print | Product List | Glossary Off
Versions: 1 2 3 4 5 6 7 8 9 10 11 12 13 14 15 16 17 18 19 20 21 22 23 24 25 26 27 28

000
ASUS45 KCYS 211310
RWRWY

WYOMING REGIONAL WEATHER ROUNDUP
NATIONAL WEATHER SERVICE CHEYENNE WY
600 AM MST TUE NOV 21 2017

NOTE:  "FAIR" INDICATES FEW OR NO CLOUDS BELOW 12,000 FEET
WITH NO SIGNIFICANT WEATHER AND/OR OBSTRUCTIONS TO VISIBILITY.

WYZ001-211400-
YELLOWSTONE NATIONAL PARK

CITY           SKY/WX    TMP DP  RH WIND       PRES   REMARKS
LK YELLOWSTONE   N/A     24  23  96 W3        30.22R
W YELLOWSTONE  NOT AVBL

$$
WYZ002>013-054>058-071-098>099-211400-
NORTHERN WYOMING

CITY           SKY/WX    TMP DP  RH WIND       PRES   REMARKS
JACKSON        FLURRIES  35  32  88 CALM      30.20R
CODY           CLOUDY    25  24  96 S3        30.20R
GREYBULL       FAIR      31  28  89 NW8       30.19R WCI  23
WORLAND        CLOUDY    33  31  92 E3        30.19R
SHERIDAN       CLOUDY    27  24  89 S3        30.24S
BUFFALO        CLOUDY    24  20  84 CALM      30.23R
GILLETTE       CLOUDY    25  21  85 N8        30.23R WCI  16
HULETT         CLOUDY    27  21  80 NW6       30.23R WCI  20
NEWCASTLE      CLOUDY    28  21  74 NW14G20   30.20R WCI  17

$$
WYZ014>020-022>026-101>103-211400-
CENTRAL WYOMING

CITY           SKY/WX    TMP DP  RH WIND       PRES   REMARKS
BIG PINEY      FOG       26  25  96 NE3       30.20S VSB 1/4
PINEDALE       CLOUDY    28  28 100 N5        30.21R WCI  23
DUBOIS         FAIR      36  30  80 NW24      30.14R WCI  24
LANDER           N/A     38  31  76 VRB5      30.15R WCI  34
RIVERTON       MOCLDY    37  32  82 S5        30.17R WCI  33
CASPER         CLOUDY    30  27  88 NE13      30.20R WCI  20
DOUGLAS        CLOUDY    29  28  96 N13       30.21R WCI  19

$$
WYZ021-027>030-104>119-211400-
SOUTHERN WYOMING

CITY           SKY/WX    TMP DP  RH WIND       PRES   REMARKS
EVANSTON       FAIR      38  34  85 W15       30.27R WCI  29
KEMMERER       FAIR      36  34  93 W17G28    30.22R WCI  25
FORT BRIDGER   CLOUDY    39  38  94 W14       30.28R WCI  31
ROCK SPRINGS   FAIR      37  32  82 W20       30.21R WCI  27
DIXON          CLOUDY    37  28  70 W3        30.24R
RAWLINS        MIX PCPN  36  33  89 W13       30.18R WCI  27
SARATOGA       CLOUDY    36  36 100 NW15G21   30.20R WCI  26
LARAMIE        LGT RAIN  35  33  92 NW26G35   30.14R WCI  22
CHEYENNE       CLOUDY    37  29  72 N15       30.12R WCI  28
TORRINGTON     CLOUDY    34  28  79 NE6       30.19R WCI  29
PINE BLUFFS    CLOUDY    36  27  69 MISG      30.14R

$$




USA.gov is the U.S. government's official web portal to all federal, state and local government web resources and services.